Weather History for Shenzhen, GD

Change the Weather History Date:

Saturday, February 2, 2013

  Actual Average Record
Temperature  
Mean Temperature 73 °F -  
Max Temperature 82 °F 63 °F 82 °F (2013)
Min Temperature 64 °F 53 °F 42 °F (2008)
Cooling Degree Days 8    
Growing Degree Days 23 (Base 50)    
Moisture  
Dew Point 61 °F    
Average Humidity 71    
Maximum Humidity 94    
Minimum Humidity 31    
Precipitation  
Precipitation 0.00 in - - ()
Sea Level Pressure  
Sea Level Pressure 30.10 in    
Wind  
Wind Speed 4 mph ()    
Max Wind Speed 18 mph    
Max Gust Speed -    
Visibility 5.7 miles    
Events      
Averages and records for this station are not official NWS values.
T = Trace of Precipitation, MM = Missing Value Source: Averaged Metar Reports

Daily Weather History Graph

Daily Weather History Graph

Search for Another Location

Airport:

Trip Planner

Search our weather history database for the weather conditions in past years. The results will help you decide how hot, cold, wet, or windy it might be!

Date:

Astronomy

Feb. 02, 2013 Rise Set
Actual Time 7:03 AM CST 6:13 PM CST
Civil Twilight 6:40 AM CST 6:36 PM CST
Nautical Twilight 6:13 AM CST 7:03 PM CST
Astronomical Twilight 5:46 AM CST 7:30 PM CST
Moon 11:55 PM CST (2/2) 10:42 AM CST (2/2)
Length of Visible Light 11h 56m
Length of Day
11h 09m
Waning Gibbous, 66% of the Moon is Illuminated
Feb 2
Waning Gibbous
Feb 3
Last Quarter
Feb 10
New
Feb 18
First Quarter
Feb 26
Full

Hourly Weather History & Observations

Time (CST) Temp. Dew Point Humidity Pressure Visibility Wind Dir Wind Speed Gust Speed Precip Events Conditions
12:00 AM 66.2 °F 62.6 °F 88% 30.09 in 5.0 mi Calm Calm - N/A   Unknown
1:00 AM 66.2 °F 62.6 °F 88% 30.09 in 4.3 mi Calm Calm - N/A   Unknown
2:00 AM 66 °F 63 °F 86% 30.10 in 14 mi North 2.2 mph - -   Clear
2:00 AM 64.4 °F 62.6 °F 94% 30.09 in 4.3 mi South 4.5 mph - N/A   Unknown
3:00 AM 64.4 °F 62.6 °F 94% 30.09 in 3.1 mi Calm Calm - N/A   Mist
4:00 AM 64.4 °F 62.6 °F 94% 30.09 in 3.1 mi NW 4.5 mph - N/A   Mist
5:00 AM 66 °F 63 °F 87% 30.10 in 10 mi South 2.2 mph - -   Mostly Cloudy
5:00 AM 64.4 °F 62.6 °F 94% 30.09 in 3.1 mi North 2.2 mph - N/A   Mostly Cloudy
6:00 AM 66.2 °F 64.4 °F 94% 30.09 in 3.1 mi North 2.2 mph - N/A   Mostly Cloudy
7:00 AM 66.2 °F 62.6 °F 88% 30.12 in 1.9 mi NNE 2.2 mph - N/A   Mostly Cloudy
8:00 AM 67 °F 64 °F 89% 30.15 in 8 mi SSW 2.2 mph - -   Mostly Cloudy
8:00 AM 68.0 °F 62.6 °F 83% 30.12 in 2.2 mi NE 4.5 mph - N/A   Mostly Cloudy
9:00 AM 71.6 °F 62.6 °F 73% 30.15 in 2.2 mi NE 6.7 mph - N/A   Haze
10:00 AM 75.2 °F 62.6 °F 65% 30.15 in - NE 6.7 mph - N/A   Haze
11:00 AM 78 °F 61 °F 46% 30.16 in 7 mi NNE 4.5 mph - -   Scattered Clouds
11:00 AM 78.8 °F 62.6 °F 57% 30.15 in 3.7 mi NNE 8.9 mph - N/A   Unknown
12:00 PM 75.2 °F 64.4 °F 69% 30.12 in 4.3 mi NW 4.5 mph - N/A   Unknown
1:00 PM 75.2 °F 64.4 °F 69% 30.09 in 2.8 mi WNW 6.7 mph - N/A   Haze
2:00 PM 82 °F 56 °F 31% 30.06 in 11 mi SE 6.7 mph - -   Scattered Clouds
2:00 PM 75.2 °F 62.6 °F 65% 30.04 in 3.1 mi West 6.7 mph - N/A   Haze
3:00 PM 77.0 °F 62.6 °F 61% 30.04 in 3.7 mi SW 6.7 mph - N/A   Scattered Clouds
4:00 PM 73.4 °F 62.6 °F 69% 30.04 in 6.2 mi SSW 17.9 mph - N/A   Mostly Cloudy
5:00 PM 72 °F 53 °F 41% 30.09 in 9 mi ENE 6.7 mph - -   Mostly Cloudy
5:00 PM 77.0 °F 59.0 °F 54% 30.06 in - SSE 13.4 mph - N/A   Clear
6:00 PM 73.4 °F 55.4 °F 53% 30.06 in - SE 13.4 mph - N/A   Clear
7:00 PM 71.6 °F 55.4 °F 57% 30.09 in - SE 8.9 mph - N/A   Clear
8:00 PM 68 °F 58 °F 61% 30.14 in 9 mi NE 4.5 mph - -   Mostly Cloudy
8:00 PM 71.6 °F 57.2 °F 60% 30.09 in - SE 13.4 mph - N/A   Clear
9:00 PM 69.8 °F 57.2 °F 64% 30.12 in - SE 8.9 mph - N/A   Clear
10:00 PM 69.8 °F 59.0 °F 68% 30.12 in - SE 8.9 mph - N/A   Clear
11:00 PM 68 °F 59 °F 67% 30.13 in 12 mi ENE 6.7 mph - -   Mostly Cloudy
11:00 PM 69.8 °F 59.0 °F 68% 30.12 in 6.2 mi SE 6.7 mph - N/A   Mostly Cloudy